Home > Weather > Colonia > Past weeks

Flag for Micronesia Past Weather in Colonia, Yap, Micronesia — Yesterday and Last 2 Weeks

Now
82 °F

Broken clouds.


Feels Like: 92 °F
Forecast: 77 / 88 °F
Wind: No wind

Location: Yap Island

Current Time: Jul 29, 2016 at 8:27:41 AM

Latest Report: Jul 29, 2016 at 7:55 AM


Visibility: 12 mi

Pressure: 29.80 "Hg

Humidity: 91%

Dew Point: 79 °F

Location of ColoniaLocation

Past Weather in Colonia — Graph

°F

Colonia Temperature Yesterday

Maximum temperature yesterday: 89 °F (at 10:52 AM)
Minimum temperature yesterday: 77 °F (at 12:55 AM)
Average temperature yesterday: 80 °F

High & Low Weather Summary for the Past Weeks

 TemperatureHumidityPressure
High134 °F (Jul 20, 6:53 AM)94% (Jul 27, 4:53 AM)29.89 "Hg (Jul 27, 4:53 AM)
Low75 °F (Jul 27, 6:50 AM)17% (Jul 20, 6:53 AM)29.72 "Hg (Jul 21, 4:50 PM)
Average83 °F80%29.80 "Hg
* Reported Jul 14 6:53 AM — Jul 29 6:52 AM, Colonia, Weather by CustomWeather, © 2016

Note: Actual official high and low records may vary slightly from our data, if they occured in-between our weather recording intervals... More about our weather records

Advertising

Colonia Weather History for the Previous 24 Hours

Scroll right to see more
 ConditionsComfort  
Time TempWeatherWind HumidityBarometerVisibility
6:52 AM
Fri, Jul 29
77 °FSprinkles. Mostly cloudy.No wind91%29.78 "Hg12 mi
5:50 AM77 °FPartly cloudy.2 mph93%29.78 "Hg12 mi
4:53 AM77 °FPartly cloudy.3 mph93%29.77 "Hg12 mi
3:53 AM77 °FPartly cloudy.2 mph93%29.76 "Hg12 mi
2:52 AM76 °FPartly cloudy.2 mph91%29.78 "Hg12 mi
1:53 AM76 °FSprinkles. Partly cloudy.2 mph91%29.79 "Hg11 mi
12:54 AM78 °FPartly cloudy.5 mph90%29.81 "Hg12 mi
11:52 PM
Thu, Jul 28
78 °FOvercast.No wind91%29.82 "Hg12 mi
10:51 PM79 °FOvercast.No wind90%29.81 "Hg12 mi
9:54 PM80 °FOvercast.No wind90%29.80 "Hg12 mi
8:52 PM80 °FOvercast.2 mph89%29.78 "Hg12 mi
7:53 PM80 °FCloudy.3 mph90%29.78 "Hg12 mi
6:54 PM80 °FCloudy.5 mph89%29.76 "Hg12 mi
5:51 PM80 °FCloudy.3 mph89%29.74 "Hg12 mi
4:55 PM80 °FMore clouds than sun.2 mph90%29.74 "Hg12 mi
3:53 PM80 °FMore clouds than sun.3 mph92%29.75 "Hg12 mi
2:51 PM80 °FSprinkles. More clouds than sun.5 mph90%29.76 "Hg11 mi
1:52 PM81 °FSprinkles. More clouds than sun.6 mph89%29.78 "Hg12 mi
12:52 PM78 °FMore clouds than sun.5 mph90%29.78 "Hg12 mi
11:57 AM77 °FLots of rain. Mostly cloudy.2 mph89%29.80 "Hg3 mi
10:52 AM89 °FSprinkles. Cloudy.10 mph67%29.80 "Hg10 mi
9:54 AM84 °FBroken clouds.3 mph85%29.80 "Hg12 mi
8:50 AM86 °FCloudy.9 mph82%29.80 "Hg12 mi
Weather by CustomWeather, © 2016

See weather overviewHow to use our weather pages